STARLINK-34260, 64334

Orbit data source: Space-Track

STARLINK-34260, 64334 is a payload satellite owned by SpaceX/Seattle (US) in LEO that was launched on Tue, 10 Jun 2025 UTC via an FALCON 9 launch vehicle from the Air Force Eastern Test Range (AFETR). Payload-class satellites include a variety of spacecraft equipped with specific instruments for various scientific and technological missions. These include communications satellites like Starlink; space stations such as the ISS; scientific satellites like the Hubble; Earth observation satellites from companies like Planet Labs, Umbra, and HawkEye 360; GPS; miniature CubeSats for education and research; and military/defense satellites.

Loading next visibility...
Identifier
64334, 2025-124T
Orbit
LEO
Country
Flag of USUS
Related business
Manufacturer
SpaceX/Seattle
Mission
Operational Commercial Communications
Bus & Motor
STARLINK V2MO, Unknown motor
Mass
575 kg wet, ~530 kg dry
Launch date (UTC)
2025-06-10 (9 months ago)
Launch vehicle
FALCON 9
Launch site
Air Force Eastern Test Range (AFETR)
Object type
Payload
Rocket body
Debris
Shape & HBR
Box + 2 Pan, 17.7 m
Radar Cross Section
36.964 m², Large (>1 m²)

Expand to show TLE details & history
Last TLE update: 12 hours ago

TLE from 12 hours ago
0 STARLINK-34260
1 64334U 25124T   26074.35105483  .00025459  00000-0  93135-3 0  9991
2 64334  42.9954  89.9630 0000230 203.3992 156.6849 15.27584701 42648
Epoch: 2026-03-15T08:25Z
TLE epoch observation values (Epoch: 2026-03-15T08:25:31.137Z)
Latitude
-0.00002°
Longitude
150.62411°
Altitude
482.955 km
Speed
7.626 km/s
True Right ascension
05h 59m 51s
True Declination
0° 00' 00"
Sunlit
Object was in daylight at epoch
Visualization orbit readout
Latitude
Unknown
Longitude
Unknown
Altitude
Unknown
Speed
Unknown
Apparent Right ascension
Unknown
Apparent Declination
Unknown
Sunlit
N/A
Visualization observer readout
Local Sidereal Time
01:14:57
Azimuth
Unknown
Elevation
Unknown
Doppler factor
Unknown
Orbital elements
Apogee altitude
485.139 km
Perigee altitude
484.823 km
Semi-major axis
6,863.118 km
Eccentricity
0.00002
Inclination
42.9954°
RAAN
89.963°
Arg. of periapsis
203.3992°
True anomaly
156.68594°
Mean anomaly
156.6849°
Eccentric anomaly
156.68542°
Mean motion
3.81734 °/min
Orbital period
94.31 mins
BSTAR
0.00093135
Loading maneuver chart data...
Computing Atmospheric mass density...
Loading historical data...
Loading historical data...
Loading historical data...
Loading historical data...
Loading historical data...
Loading historical data...
Loading historical data...

Documentation

Showing up to 5 results
|